QPF
0.05 0.04 0.04 0.05 0.05 0.06 0.07 0.06 0.04 0.04 0.03 0.03 0.02 0.01 0.02 0.02 0.03 0.03 0.03 0.03 0.03 0.04 0.07 0.10 0.11 0.12 0.12 0.12 0.10 0.09 0.08 0.08 0.09 0.10 0.09 0.08 0.08 0.08 0.08 0.08 0.07 0.07 0.07
0.06 0.07 0.07 0.07 0.06 0.07 0.07 0.08 0.06 0.07 0.07 0.06 0.04 0.04 0.05 0.05 0.04 0.05 0.04 0.03 0.03 0.03 0.05 0.07 0.10 0.12 0.14 0.13 0.11 0.10 0.09 0.10 0.10 0.10 0.10 0.10 0.10 0.10 0.10 0.10 0.09 0.08 0.07
0.07 0.08 0.09 0.09 0.08 0.08 0.11 0.10 0.07 0.07 0.08 0.07 0.05 0.05 0.06 0.06 0.06 0.06 0.06 0.04 0.05 0.04 0.04 0.05 0.06 0.08 0.11 0.13 0.14 0.14 0.12 0.11 0.10 0.09 0.10 0.09 0.09 0.10 0.10 0.10 0.10 0.09 0.08
0.12 0.09 0.09 0.08 0.08 0.09 0.11 0.11 0.09 0.08 0.08 0.08 0.06 0.05 0.05 0.05 0.04 0.04 0.05 0.05 0.06 0.06 0.06 0.05 0.05 0.05 0.06 0.09 0.13 0.14 0.14 0.12 0.11 0.11 0.10 0.09 0.09 0.09 0.09 0.09 0.09 0.10 0.10
0.13 0.11 0.10 0.09 0.09 0.09 0.10 0.11 0.12 0.10 0.10 0.08 0.06 0.06 0.05 0.05 0.04 0.03 0.04 0.05 0.05 0.05 0.05 0.06 0.05 0.06 0.06 0.08 0.10 0.13 0.14 0.12 0.12 0.12 0.11 0.10 0.10 0.09 0.09 0.08 0.08 0.08 0.10
0.18 0.16 0.13 0.12 0.09 0.10 0.11 0.11 0.12 0.11 0.09 0.09 0.08 0.07 0.05 0.05 0.05 0.05 0.04 0.04 0.04 0.04 0.04 0.05 0.06 0.06 0.07 0.07 0.08 0.10 0.13 0.14 0.13 0.13 0.13 0.11 0.09 0.08 0.08 0.08 0.07 0.08 0.09
0.18 0.16 0.15 0.14 0.12 0.12 0.13 0.13 0.12 0.12 0.12 0.12 0.11 0.10 0.07 0.05 0.04 0.03 0.03 0.03 0.03 0.03 0.02 0.02 0.03 0.03 0.03 0.03 0.04 0.06 0.09 0.11 0.10 0.10 0.10 0.10 0.09 0.09 0.10 0.10 0.10 0.09 0.10
0.18 0.18 0.16 0.14 0.14 0.13 0.12 0.12 0.11 0.12 0.12 0.14 0.16 0.16 0.14 0.10 0.06 0.03 0.03 0.03 0.03 0.03 0.02 0.02 0.02 0.02 0.02 0.02 0.03 0.04 0.04 0.05 0.04 0.05 0.06 0.06 0.07 0.07 0.08 0.08 0.09 0.10 0.11
0.16 0.16 0.16 0.16 0.15 0.14 0.13 0.14 0.14 0.14 0.15 0.15 0.15 0.15 0.15 0.12 0.08 0.05 0.04 0.03 0.03 0.02 0.01 0.02 0.02 0.02 0.01 0.02 0.02 0.03 0.03 0.03 0.03 0.03 0.04 0.04 0.05 0.06 0.07 0.07 0.08 0.09 0.11
0.17 0.16 0.14 0.14 0.12 0.12 0.12 0.13 0.13 0.13 0.12 0.10 0.08 0.08 0.09 0.09 0.09 0.08 0.06 0.04 0.03 0.02 0.02 0.02 0.01 0.01 0.02 0.02 0.03 0.03 0.04 0.03 0.03 0.03 0.03 0.03 0.04 0.05 0.05 0.06 0.07 0.08 0.09
0.17 0.15 0.14 0.12 0.11 0.10 0.10 0.10 0.12 0.11 0.09 0.08 0.07 0.06 0.06 0.07 0.08 0.09 0.08 0.06 0.04 0.04 0.03 0.02 0.02 0.02 0.02 0.02 0.03 0.03 0.04 0.04 0.04 0.04 0.04 0.04 0.04 0.03 0.04 0.05 0.06 0.06 0.07
0.15 0.13 0.12 0.10 0.10 0.08 0.07 0.08 0.08 0.08 0.07 0.05 0.04 0.04 0.04 0.04 0.06 0.08 0.08 0.07 0.06 0.05 0.04 0.03 0.03 0.03 0.03 0.03 0.03 0.03 0.04 0.04 0.04 0.04 0.04 0.03 0.02 0.01 0.01 0.01 0.02 0.03 0.04
0.15 0.14 0.13 0.12 0.10 0.08 0.08 0.07 0.07 0.07 0.06 0.05 0.03 0.02 0.02 0.02 0.03 0.04 0.06 0.07 0.06 0.05 0.04 0.03 0.03 0.03 0.03 0.02 0.02 0.03 0.03 0.03 0.03 0.03 0.02 0.02 0.02 0.02 0.01 0.01 0.02 0.02 0.03
0.10 0.10 0.10 0.09 0.08 0.08 0.08 0.08 0.07 0.07 0.06 0.05 0.04 0.03 0.02 0.02 0.02 0.02 0.03 0.04 0.05 0.04 0.04 0.03 0.02 0.02 0.01 0.01 0.02 0.02 0.02 0.02 0.02 0.02 0.02 0.02 0.02 0.02 0.02 0.02 0.02 0.02 0.03
0.05 0.05 0.05 0.05 0.05 0.04 0.04 0.04 0.05 0.05 0.04 0.04 0.03 0.03 0.03 0.02 0.02 0.02 0.02 0.02 0.03 0.03 0.03 0.02 0.02 0.02 0.01 0.02 0.03 0.02 0.02 0.02 0.02 0.02 0.02 0.02 0.02 0.02 0.03 0.03 0.02 0.02 0.03
0.04 0.04 0.03 0.03 0.02 0.02 0.02 0.02 0.02 0.02 0.03 0.02 0.02 0.01 0.01 0.02 0.02 0.02 0.02 0.01 0.02 0.02 0.02 0.01 0.01 0.02 0.02 0.01 0.02 0.01 0.02 0.02 0.01 0.01 0.01 0.01 0.01 0.01 0.02 0.02 0.02 0.02 0.02
0.05 0.03 0.02 0.02 0.02 0.01 0.01 0.01 0.01 0.01 0.02 0.02 0.02 0.02 0.02 0.02 0.02 0.02 0.02 0.02 0.02 0.02 0.02 0.02 0.02 0.02 0.01 0.01 0.01 0.01 0.01 0.01 0.01 0.01 0.01 0.01 0.01 0.01 0.01 0.01 0.02 0.02 0.02
0.06 0.04 0.03 0.02 0.02 0.01 0.01 0.01 0.01 0.01 0.01 0.01 0.01 0.02 0.02 0.02 0.01 0.01 0.01 0.01 0.02 0.02 0.02 0.02 0.02 0.02 0.01 0.01 0.01 0.01 0.01 0.01 0.01 0.01 0.01 0.01 0.01 0.00 0.00 0.00 0.01 0.01 0.02
0.04 0.04 0.03 0.03 0.03 0.03 0.02 0.02 0.01 0.01 0.01 0.01 0.01 0.01 0.01 0.01 0.01 0.01 0.01 0.01 0.01 0.02 0.02 0.02 0.02 0.02 0.01 0.01 0.01 0.01 0.01 0.01 0.00 0.00 0.00 0.00 0.00 0.00 0.00 0.00 0.00 0.00 0.00
0.03 0.02 0.02 0.01 0.01 0.02 0.02 0.02 0.02 0.01 0.01 0.01 0.01 0.01 0.01 0.01 0.01 0.01 0.01 0.01 0.01 0.02 0.02 0.02 0.01 0.02 0.02 0.01 0.02 0.02 0.01 0.01 0.00 0.00 0.00 0.00 0.00 0.00 0.00 0.00 0.00 0.00 0.00
0.01 0.01 0.01 0.01 0.01 0.00 0.00 0.00 0.00 0.01 0.01 0.01 0.01 0.01 0.01 0.01 0.01 0.01 0.01 0.01 0.01 0.01 0.01 0.01 0.01 0.02 0.02 0.02 0.02 0.01 0.01 0.01 0.01 0.00 0.01 0.00 0.00 0.01 0.01 0.01 0.00 0.00 0.00
0.01 0.01 0.01 0.01 0.01 0.00 0.00 0.00 0.00 0.00 0.00 0.01 0.01 0.01 0.01 0.01 0.01 0.01 0.01 0.01 0.01 0.01 0.02 0.02 0.02 0.02 0.02 0.02 0.01 0.01 0.01 0.01 0.01 0.01 0.01 0.01 0.01 0.02 0.03 0.02 0.00 0.00 0.00
0.01 0.01 0.01 0.01 0.01 0.00 0.00 0.00 0.00 0.00 0.00 0.01 0.01 0.01 0.01 0.00 0.00 0.01 0.01 0.00 0.00 0.00 0.01 0.01 0.02 0.02 0.02 0.02 0.02 0.02 0.02 0.02 0.02 0.01 0.01 0.03 0.03 0.04 0.02 0.00 0.00 0.00 0.00
0.01 0.01 0.01 0.01 0.01 0.01 0.00 0.00 0.00 0.01 0.01 0.01 0.01 0.01 0.01 0.01 0.01 0.00 0.00 0.00 0.00 0.00 0.00 0.00 0.01 0.01 0.01 0.01 0.01 0.01 0.01 0.02 0.03 0.03 0.01 0.03 0.05 0.05 0.02 0.03 0.00 0.00 0.00
0.01 0.01 0.01 0.01 0.01 0.01 0.00 0.00 0.00 0.01 0.01 0.01 0.01 0.01 0.01 0.01 0.00 0.00 0.01 0.01 0.01 0.01 0.00 0.00 0.00 0.00 0.00 0.00 0.00 0.01 0.02 0.03 0.05 0.05 0.02 0.03 0.05 0.04 0.04 0.04 0.01 0.00 0.00
0.01 0.01 0.01 0.01 0.01 0.01 0.00 0.00 0.00 0.01 0.01 0.01 0.01 0.01 0.00 0.00 0.00 0.00 0.01 0.02 0.02 0.02 0.01 0.01 0.01 0.01 0.01 0.01 0.00 0.01 0.04 0.04 0.05 0.06 0.04 0.03 0.06 0.04 0.04 0.04 0.03 0.02 0.02
MSLP
1016.47 1016.85 1017.19 1017.49 1017.74 1017.93 1018.07 1018.16 1018.20 1018.21 1018.19 1018.16 1018.14 1018.15 1018.21 1018.31 1018.46 1018.65 1018.84 1019.02 1019.16 1019.24 1019.27 1019.24 1019.18 1019.11 1019.06 1019.04 1019.07 1019.15 1019.27 1019.40 1019.54 1019.67 1019.77 1019.85 1019.90 1019.94 1019.97 1019.99 1020.02 1020.06 1020.09
1016.34 1016.70 1017.04 1017.33 1017.58 1017.79 1017.95 1018.08 1018.17 1018.24 1018.30 1018.35 1018.42 1018.51 1018.62 1018.77 1018.93 1019.10 1019.25 1019.37 1019.45 1019.46 1019.43 1019.36 1019.26 1019.17 1019.10 1019.09 1019.12 1019.20 1019.32 1019.46 1019.60 1019.72 1019.82 1019.88 1019.92 1019.94 1019.94 1019.94 1019.94 1019.94 1019.94
1016.34 1016.69 1017.01 1017.30 1017.55 1017.78 1017.98 1018.15 1018.31 1018.47 1018.62 1018.77 1018.92 1019.09 1019.26 1019.43 1019.59 1019.73 1019.84 1019.90 1019.91 1019.87 1019.79 1019.67 1019.55 1019.44 1019.37 1019.35 1019.38 1019.46 1019.57 1019.70 1019.83 1019.94 1020.02 1020.06 1020.08 1020.07 1020.05 1020.02 1019.99 1019.97 1019.94
1016.48 1016.80 1017.09 1017.36 1017.62 1017.86 1018.09 1018.32 1018.56 1018.80 1019.04 1019.29 1019.53 1019.77 1019.99 1020.18 1020.35 1020.47 1020.54 1020.56 1020.52 1020.43 1020.31 1020.18 1020.04 1019.92 1019.84 1019.82 1019.84 1019.91 1020.00 1020.12 1020.22 1020.30 1020.36 1020.37 1020.36 1020.32 1020.27 1020.22 1020.17 1020.13 1020.09
1016.72 1017.00 1017.27 1017.52 1017.76 1018.01 1018.26 1018.54 1018.83 1019.14 1019.46 1019.79 1020.11 1020.41 1020.67 1020.90 1021.07 1021.18 1021.24 1021.23 1021.18 1021.08 1020.95 1020.81 1020.68 1020.56 1020.49 1020.45 1020.46 1020.51 1020.58 1020.66 1020.73 1020.78 1020.80 1020.78 1020.73 1020.66 1020.59 1020.52 1020.45 1020.39 1020.35
1017.05 1017.29 1017.52 1017.74 1017.96 1018.19 1018.45 1018.74 1019.06 1019.41 1019.78 1020.17 1020.54 1020.88 1021.18 1021.43 1021.63 1021.75 1021.82 1021.83 1021.79 1021.71 1021.61 1021.50 1021.39 1021.29 1021.22 1021.19 1021.18 1021.21 1021.24 1021.28 1021.31 1021.32 1021.29 1021.24 1021.15 1021.05 1020.95 1020.86 1020.78 1020.72 1020.67
1017.43 1017.65 1017.85 1018.03 1018.22 1018.42 1018.65 1018.92 1019.24 1019.59 1019.98 1020.37 1020.77 1021.13 1021.46 1021.74 1021.95 1022.11 1022.21 1022.27 1022.28 1022.26 1022.21 1022.15 1022.09 1022.02 1021.98 1021.94 1021.93 1021.93 1021.93 1021.93 1021.91 1021.87 1021.80 1021.70 1021.58 1021.44 1021.31 1021.19 1021.10 1021.03 1020.98
1017.86 1018.07 1018.25 1018.40 1018.54 1018.70 1018.89 1019.11 1019.38 1019.71 1020.06 1020.44 1020.82 1021.18 1021.51 1021.80 1022.04 1022.24 1022.39 1022.51 1022.59 1022.65 1022.68 1022.70 1022.70 1022.68 1022.67 1022.65 1022.63 1022.60 1022.58 1022.53 1022.47 1022.38 1022.27 1022.12 1021.96 1021.79 1021.63 1021.48 1021.37 1021.29 1021.24
1018.35 1018.57 1018.74 1018.87 1018.97 1019.08 1019.20 1019.36 1019.57 1019.82 1020.12 1020.44 1020.77 1021.10 1021.41 1021.70 1021.95 1022.18 1022.38 1022.57 1022.73 1022.87 1022.99 1023.09 1023.16 1023.21 1023.23 1023.23 1023.21 1023.18 1023.12 1023.05 1022.95 1022.82 1022.66 1022.48 1022.28 1022.07 1021.87 1021.70 1021.56 1021.46 1021.39
1018.89 1019.15 1019.33 1019.45 1019.52 1019.58 1019.64 1019.73 1019.86 1020.03 1020.24 1020.48 1020.74 1021.01 1021.28 1021.54 1021.79 1022.04 1022.28 1022.51 1022.74 1022.95 1023.15 1023.32 1023.46 1023.56 1023.63 1023.65 1023.65 1023.61 1023.54 1023.44 1023.31 1023.16 1022.97 1022.75 1022.52 1022.28 1022.05 1021.84 1021.66 1021.52 1021.42
1019.49 1019.80 1020.00 1020.13 1020.19 1020.21 1020.22 1020.24 1020.28 1020.37 1020.49 1020.65 1020.83 1021.03 1021.24 1021.46 1021.68 1021.91 1022.16 1022.42 1022.68 1022.94 1023.19 1023.42 1023.61 1023.76 1023.86 1023.90 1023.91 1023.87 1023.80 1023.69 1023.55 1023.38 1023.17 1022.93 1022.68 1022.41 1022.15 1021.91 1021.70 1021.52 1021.37
1020.13 1020.49 1020.73 1020.86 1020.92 1020.92 1020.89 1020.86 1020.85 1020.86 1020.91 1020.99 1021.10 1021.22 1021.36 1021.52 1021.70 1021.90 1022.12 1022.37 1022.63 1022.91 1023.18 1023.43 1023.65 1023.82 1023.93 1024.00 1024.01 1023.98 1023.91 1023.80 1023.66 1023.48 1023.27 1023.03 1022.77 1022.49 1022.21 1021.94 1021.69 1021.47 1021.27
1020.79 1021.19 1021.46 1021.61 1021.67 1021.66 1021.62 1021.56 1021.51 1021.48 1021.47 1021.49 1021.54 1021.60 1021.68 1021.77 1021.89 1022.03 1022.21 1022.42 1022.65 1022.90 1023.16 1023.40 1023.61 1023.78 1023.90 1023.97 1023.98 1023.96 1023.89 1023.78 1023.64 1023.47 1023.27 1023.05 1022.80 1022.53 1022.25 1021.96 1021.69 1021.43 1021.18
1021.44 1021.86 1022.14 1022.30 1022.37 1022.37 1022.33 1022.26 1022.20 1022.15 1022.12 1022.10 1022.11 1022.13 1022.15 1022.19 1022.25 1022.33 1022.45 1022.59 1022.77 1022.97 1023.17 1023.38 1023.56 1023.70 1023.80 1023.86 1023.86 1023.83 1023.76 1023.66 1023.53 1023.38 1023.20 1023.00 1022.77 1022.53 1022.27 1021.99 1021.71 1021.42 1021.14
1022.06 1022.47 1022.75 1022.91 1022.99 1022.99 1022.96 1022.90 1022.85 1022.80 1022.77 1022.76 1022.75 1022.74 1022.74 1022.74 1022.74 1022.77 1022.82 1022.89 1022.99 1023.12 1023.26 1023.40 1023.53 1023.63 1023.69 1023.71 1023.70 1023.64 1023.56 1023.46 1023.34 1023.20 1023.05 1022.88 1022.70 1022.49 1022.27 1022.03 1021.76 1021.47 1021.16
1022.64 1023.01 1023.27 1023.42 1023.50 1023.51 1023.49 1023.46 1023.42 1023.40 1023.39 1023.38 1023.38 1023.38 1023.36 1023.34 1023.31 1023.29 1023.28 1023.29 1023.32 1023.37 1023.44 1023.50 1023.56 1023.60 1023.60 1023.58 1023.52 1023.44 1023.33 1023.22 1023.09 1022.97 1022.84 1022.71 1022.57 1022.42 1022.25 1022.06 1021.83 1021.56 1021.25
1023.17 1023.49 1023.71 1023.85 1023.92 1023.94 1023.94 1023.92 1023.91 1023.91 1023.93 1023.95 1023.97 1023.97 1023.97 1023.94 1023.91 1023.86 1023.81 1023.77 1023.74 1023.72 1023.70 1023.69 1023.67 1023.64 1023.58 1023.49 1023.38 1023.25 1023.11 1022.96 1022.82 1022.69 1022.58 1022.48 1022.39 1022.30 1022.19 1022.06 1021.89 1021.66 1021.39
1023.66 1023.92 1024.11 1024.23 1024.30 1024.33 1024.34 1024.34 1024.35 1024.37 1024.40 1024.44 1024.48 1024.51 1024.52 1024.51 1024.48 1024.42 1024.36 1024.28 1024.20 1024.13 1024.05 1023.97 1023.87 1023.76 1023.63 1023.47 1023.29 1023.10 1022.90 1022.72 1022.55 1022.40 1022.29 1022.21 1022.16 1022.12 1022.08 1022.01 1021.91 1021.75 1021.52
1024.10 1024.32 1024.49 1024.61 1024.68 1024.71 1024.73 1024.74 1024.76 1024.78 1024.83 1024.88 1024.94 1024.98 1025.02 1025.02 1025.01 1024.96 1024.89 1024.80 1024.69 1024.58 1024.44 1024.30 1024.13 1023.95 1023.74 1023.51 1023.26 1023.00 1022.74 1022.50 1022.29 1022.12 1022.00 1021.93 1021.90 1021.90 1021.91 1021.90 1021.87 1021.78 1021.61
1024.49 1024.69 1024.86 1024.98 1025.06 1025.11 1025.14 1025.15 1025.17 1025.19 1025.22 1025.27 1025.33 1025.39 1025.44 1025.47 1025.47 1025.44 1025.38 1025.29 1025.17 1025.02 1024.85 1024.65 1024.43 1024.18 1023.90 1023.60 1023.28 1022.95 1022.63 1022.34 1022.08 1021.87 1021.73 1021.65 1021.62 1021.64 1021.69 1021.74 1021.76 1021.73 1021.62
1024.80 1025.02 1025.20 1025.35 1025.46 1025.52 1025.56 1025.57 1025.57 1025.58 1025.60 1025.63 1025.68 1025.74 1025.79 1025.83 1025.86 1025.85 1025.80 1025.72 1025.59 1025.43 1025.23 1024.99 1024.71 1024.41 1024.07 1023.70 1023.33 1022.94 1022.57 1022.22 1021.92 1021.68 1021.50 1021.40 1021.37 1021.39 1021.45 1021.52 1021.58 1021.59 1021.53
1025.04 1025.28 1025.50 1025.69 1025.83 1025.92 1025.96 1025.97 1025.96 1025.95 1025.94 1025.95 1025.98 1026.02 1026.07 1026.13 1026.16 1026.17 1026.14 1026.06 1025.93 1025.76 1025.53 1025.26 1024.95 1024.59 1024.21 1023.81 1023.38 1022.96 1022.55 1022.17 1021.83 1021.55 1021.34 1021.21 1021.15 1021.16 1021.21 1021.28 1021.34 1021.37 1021.34
1025.18 1025.47 1025.74 1025.97 1026.14 1026.26 1026.32 1026.33 1026.30 1026.27 1026.23 1026.21 1026.21 1026.24 1026.29 1026.34 1026.38 1026.39 1026.36 1026.29 1026.16 1025.97 1025.73 1025.43 1025.10 1024.71 1024.30 1023.87 1023.43 1022.98 1022.55 1022.15 1021.79 1021.49 1021.26 1021.09 1021.00 1020.96 1020.98 1021.02 1021.06 1021.07 1021.04
1025.26 1025.58 1025.90 1026.17 1026.38 1026.53 1026.60 1026.61 1026.58 1026.52 1026.46 1026.42 1026.40 1026.40 1026.43 1026.47 1026.50 1026.51 1026.48 1026.40 1026.26 1026.06 1025.80 1025.49 1025.13 1024.74 1024.32 1023.88 1023.43 1022.99 1022.57 1022.17 1021.80 1021.49 1021.23 1021.03 1020.89 1020.81 1020.77 1020.75 1020.73 1020.70 1020.64
1025.31 1025.67 1026.01 1026.31 1026.55 1026.72 1026.80 1026.82 1026.79 1026.72 1026.64 1026.58 1026.53 1026.51 1026.52 1026.54 1026.55 1026.55 1026.50 1026.41 1026.25 1026.04 1025.76 1025.44 1025.07 1024.67 1024.26 1023.83 1023.40 1022.98 1022.57 1022.19 1021.83 1021.52 1021.24 1021.01 1020.82 1020.67 1020.56 1020.46 1020.38 1020.29 1020.17
1025.38 1025.75 1026.11 1026.43 1026.68 1026.86 1026.96 1026.98 1026.95 1026.88 1026.79 1026.71 1026.65 1026.61 1026.58 1026.57 1026.56 1026.52 1026.45 1026.33 1026.15 1025.92 1025.63 1025.30 1024.93 1024.54 1024.13 1023.72 1023.32 1022.93 1022.55 1022.19 1021.86 1021.54 1021.25 1020.99 1020.75 1020.54 1020.34 1020.17 1020.00 1019.82 1019.65
Thickness
5728 5727 5725 5724 5725 5724 5723 5723 5725 5724 5724 5724 5724 5724 5723 5722 5721 5719 5717 5712 5710 5708 5708 5708 5707 5705 5704 5702 5700 5699 5697 5696 5694 5693 5691 5690 5689 5688 5687 5687 5686 5685 5684
5724 5723 5722 5720 5721 5721 5721 5720 5721 5720 5719 5720 5719 5718 5716 5716 5713 5712 5712 5709 5706 5705 5704 5704 5703 5702 5700 5699 5696 5695 5693 5692 5690 5689 5688 5686 5685 5684 5683 5682 5681 5680 5680
5719 5719 5718 5717 5717 5716 5716 5716 5716 5716 5716 5715 5714 5712 5711 5709 5708 5706 5706 5705 5704 5701 5699 5698 5698 5697 5695 5694 5692 5691 5689 5688 5686 5685 5683 5682 5680 5679 5678 5677 5676 5675 5675
5713 5714 5714 5714 5713 5712 5712 5712 5712 5711 5711 5709 5708 5707 5705 5703 5702 5701 5700 5699 5698 5697 5694 5691 5691 5690 5689 5688 5687 5686 5684 5683 5681 5679 5677 5676 5674 5673 5672 5671 5670 5669 5668
5709 5709 5710 5708 5707 5708 5708 5708 5707 5706 5704 5702 5701 5699 5698 5697 5696 5695 5694 5692 5691 5689 5688 5685 5683 5682 5681 5680 5680 5679 5677 5676 5674 5673 5671 5669 5667 5665 5664 5663 5663 5662 5661
5704 5704 5704 5702 5703 5703 5703 5702 5700 5699 5697 5696 5695 5692 5690 5690 5689 5688 5687 5685 5683 5682 5681 5679 5677 5674 5673 5672 5671 5670 5669 5668 5666 5664 5662 5661 5659 5658 5656 5655 5654 5653 5652
5698 5697 5697 5695 5695 5696 5696 5696 5694 5692 5690 5689 5686 5683 5681 5682 5681 5680 5679 5678 5675 5673 5672 5670 5669 5667 5665 5662 5660 5660 5659 5658 5656 5654 5652 5651 5649 5648 5647 5645 5644 5644 5643
5688 5689 5687 5687 5687 5687 5687 5687 5687 5686 5684 5683 5682 5678 5675 5673 5673 5673 5671 5669 5667 5665 5663 5660 5659 5657 5656 5653 5649 5648 5647 5645 5644 5643 5641 5639 5637 5636 5635 5634 5633 5632 5631
5678 5678 5678 5678 5679 5679 5678 5677 5678 5677 5676 5676 5676 5674 5671 5670 5668 5664 5661 5659 5657 5656 5654 5651 5648 5646 5644 5642 5640 5637 5634 5633 5632 5631 5629 5627 5625 5624 5623 5623 5621 5620 5619
5667 5667 5667 5668 5668 5669 5668 5668 5668 5669 5668 5667 5667 5665 5665 5666 5661 5655 5651 5649 5647 5645 5644 5642 5639 5636 5633 5631 5627 5625 5622 5621 5619 5618 5617 5615 5613 5612 5611 5610 5609 5608 5607
5654 5655 5656 5657 5658 5657 5656 5657 5657 5658 5658 5658 5657 5655 5655 5654 5654 5650 5644 5639 5637 5635 5633 5631 5628 5625 5622 5620 5617 5613 5610 5608 5606 5605 5604 5602 5600 5599 5598 5597 5596 5595 5594
5643 5644 5644 5645 5645 5644 5644 5645 5645 5645 5646 5645 5645 5644 5644 5643 5642 5640 5636 5631 5628 5624 5620 5617 5616 5613 5611 5608 5605 5600 5597 5595 5594 5592 5590 5588 5587 5585 5584 5583 5582 5580 5579
5631 5631 5632 5632 5631 5631 5632 5632 5632 5632 5632 5632 5631 5631 5631 5630 5630 5629 5627 5622 5618 5613 5609 5607 5604 5601 5598 5595 5592 5587 5586 5583 5581 5579 5577 5574 5572 5571 5569 5568 5566 5565 5564
5618 5618 5619 5619 5618 5618 5619 5619 5619 5618 5618 5618 5617 5617 5617 5617 5617 5616 5615 5613 5609 5606 5601 5596 5592 5589 5585 5583 5578 5576 5575 5571 5568 5566 5563 5561 5559 5557 5555 5553 5551 5550 5548
5607 5606 5606 5606 5606 5606 5606 5606 5605 5604 5604 5605 5604 5604 5604 5603 5604 5603 5603 5602 5601 5598 5593 5584 5580 5575 5573 5570 5566 5565 5563 5558 5556 5553 5550 5548 5546 5544 5542 5540 5538 5536 5534
5595 5595 5595 5594 5593 5593 5592 5592 5592 5590 5590 5589 5589 5588 5589 5590 5589 5589 5588 5587 5587 5586 5582 5576 5569 5564 5560 5559 5555 5553 5551 5547 5545 5541 5538 5535 5533 5531 5529 5527 5525 5523 5521
5583 5583 5582 5581 5581 5580 5579 5579 5578 5577 5577 5576 5575 5574 5573 5573 5575 5576 5575 5574 5573 5572 5568 5563 5558 5553 5549 5547 5545 5542 5541 5538 5537 5531 5527 5524 5521 5519 5517 5515 5513 5511 5509
5571 5570 5570 5569 5568 5567 5566 5566 5565 5564 5563 5563 5561 5561 5560 5560 5559 5560 5560 5559 5557 5554 5554 5549 5546 5543 5538 5536 5533 5531 5532 5530 5527 5522 5518 5515 5511 5508 5505 5503 5501 5499 5497
5558 5558 5558 5557 5556 5555 5554 5553 5553 5552 5550 5549 5548 5547 5547 5546 5546 5545 5545 5546 5544 5542 5540 5539 5537 5532 5531 5527 5525 5525 5524 5520 5520 5516 5512 5507 5503 5499 5497 5494 5491 5489 5487
5547 5547 5546 5545 5545 5544 5542 5542 5541 5539 5538 5536 5535 5535 5534 5533 5532 5532 5532 5530 5530 5530 5528 5529 5527 5525 5522 5519 5517 5517 5516 5515 5513 5510 5506 5503 5498 5494 5491 5488 5484 5481 5478
5536 5536 5535 5534 5533 5532 5530 5529 5529 5528 5527 5525 5524 5523 5521 5517 5515 5516 5518 5517 5518 5519 5520 5519 5517 5516 5512 5510 5509 5508 5508 5507 5506 5503 5501 5499 5496 5492 5487 5482 5478 5474 5471
5525 5525 5525 5524 5523 5520 5514 5513 5515 5517 5517 5516 5515 5514 5512 5509 5505 5504 5503 5501 5501 5504 5506 5506 5506 5504 5501 5501 5499 5499 5500 5499 5498 5497 5495 5494 5492 5489 5485 5480 5472 5469 5465
5516 5515 5515 5514 5511 5505 5502 5503 5504 5508 5508 5506 5505 5505 5505 5501 5499 5499 5496 5493 5492 5490 5488 5491 5495 5493 5492 5492 5490 5492 5491 5491 5490 5490 5489 5490 5489 5485 5482 5475 5469 5465 5461
5508 5507 5506 5504 5502 5496 5494 5494 5495 5499 5499 5497 5497 5496 5495 5493 5491 5488 5491 5492 5491 5488 5485 5485 5485 5484 5484 5482 5482 5483 5484 5486 5487 5486 5485 5486 5485 5482 5481 5473 5467 5463 5460
5500 5499 5498 5496 5495 5490 5486 5487 5486 5493 5493 5491 5490 5487 5486 5486 5478 5478 5482 5485 5485 5484 5480 5478 5477 5477 5476 5475 5475 5479 5484 5486 5486 5486 5483 5483 5482 5481 5479 5474 5469 5464 5460
5494 5494 5491 5490 5488 5484 5479 5480 5479 5489 5488 5488 5485 5482 5475 5474 5471 5471 5476 5479 5479 5478 5479 5479 5477 5476 5476 5476 5473 5474 5479 5482 5483 5482 5480 5479 5480 5479 5478 5475 5472 5467 5462